Location: Newark
(43.6583°N, 1.6617°E)
Time: 05:15:21
(UTC+00:00)

Transit 2A - All Passes

Search period start: 21 August 2019 00:00
Search period end: 31 August 2019 00:00
Orbit: 597 x 962 km, 66.7° (Epoch: 20 August)

Date Brightness Start Highest point End Pass type
(mag) Time Alt. Az. Time Alt. Az. Time Alt. Az.
21 Aug - 08:40:47 10° S 08:46:09 32° ESE 08:51:13 10° NE daylight
21 Aug - 10:23:19 10° SW 10:29:14 48° NW 10:34:43 10° NNE daylight
21 Aug - 12:11:21 10° WNW 12:13:45 12° NNW 12:16:03 10° N daylight
21 Aug - 17:26:47 10° NNW 17:31:06 30° NE 17:35:05 10° ESE daylight
21 Aug - 19:09:59 10° NW 19:14:17 35° WSW 19:18:19 10° S visible
22 Aug - 08:07:34 10° SSE 08:12:12 23° ESE 08:16:37 10° ENE daylight
22 Aug - 09:48:56 10° SW 09:55:03 66° NW 10:00:42 10° NNE daylight
22 Aug - 11:35:46 10° WNW 11:39:14 16° NW 11:42:34 10° N daylight
22 Aug - 16:52:56 10° N 16:56:46 22° NE 17:00:20 10° E daylight
22 Aug - 18:35:39 10° NW 18:40:19 54° WSW 18:44:37 10° SSE daylight
23 Aug - 07:34:51 10° SE 07:38:18 16° ESE 07:41:38 10° ENE daylight
23 Aug - 09:14:43 10° SSW 09:20:54 89° WNW 09:26:37 10° NNE daylight
23 Aug - 11:00:30 10° W 11:04:49 20° NW 11:08:52 10° N daylight
23 Aug - 16:19:12 10° N 16:22:21 17° NE 16:25:19 10° ENE daylight
23 Aug - 18:01:27 10° NNW 18:06:16 83° WSW 18:10:41 10° SSE daylight
24 Aug - 07:03:52 10° ESE 07:04:27 10° ESE 07:05:02 10° E daylight
24 Aug - 08:40:42 10° SSW 08:46:48 67° ESE 08:52:27 10° NE daylight
24 Aug - 10:25:30 10° W 10:30:26 26° NW 10:35:03 10° NNE daylight
24 Aug - 15:45:41 10° N 15:47:52 13° NNE 15:49:59 10° ENE daylight
24 Aug - 17:27:20 10° NNW 17:32:09 66° NE 17:36:33 10° SE daylight
24 Aug - 19:12:19 10° WNW 19:14:35 14° WSW 19:16:45 10° SW visible
25 Aug - 08:06:53 10° S 08:12:45 47° ESE 08:18:13 10° NE daylight
25 Aug - 09:50:41 10° WSW 09:56:07 34° NW 10:01:10 10° NNE daylight
25 Aug - 16:53:19 10° NNW 16:57:57 44° NE 17:02:13 10° SE daylight
25 Aug - 18:37:15 10° WNW 18:40:43 21° WSW 18:44:00 10° SSW daylight
26 Aug - 07:33:18 10° S 07:38:44 34° ESE 07:43:51 10° NE daylight
26 Aug - 09:16:04 10° SW 09:21:52 45° NW 09:27:14 10° NNE daylight
26 Aug - 11:04:30 10° NW 11:06:26 12° NNW 11:08:18 10° N daylight
26 Aug - 16:19:21 10° NNW 16:23:42 31° NE 16:27:43 10° ESE daylight
26 Aug - 18:02:40 10° NW 18:06:48 32° WSW 18:10:42 10° S daylight
27 Aug - 07:00:01 10° SSE 07:04:47 24° ESE 07:09:17 10° ENE daylight
27 Aug - 08:41:38 10° SW 08:47:40 61° NW 08:53:13 10° NNE daylight
27 Aug - 10:28:44 10° WNW 10:31:55 15° NW 10:34:58 10° N daylight
27 Aug - 15:45:30 10° N 15:49:22 23° NE 15:52:59 10° E daylight
27 Aug - 17:28:17 10° NW 17:32:50 49° WSW 17:37:04 10° S daylight
28 Aug - 06:27:09 10° SE 06:30:51 17° ESE 06:34:25 10° ENE daylight
28 Aug - 08:07:23 10° SSW 08:13:31 84° WNW 08:19:10 10° NNE daylight
28 Aug - 09:53:25 10° W 09:57:28 19° NW 10:01:18 10° N daylight
28 Aug - 15:11:45 10° N 15:14:58 17° NE 15:18:02 10° E daylight
28 Aug - 16:54:04 10° NW 16:58:48 76° WSW 17:03:11 10° SSE daylight
29 Aug - 05:55:23 10° ESE 05:57:00 11° ESE 05:58:34 10° E daylight
29 Aug - 07:33:19 10° SSW 07:39:25 72° ESE 07:45:01 10° NE daylight
29 Aug - 09:18:20 10° W 09:23:04 24° NW 09:27:32 10° N daylight
29 Aug - 14:38:12 10° N 14:40:31 13° NE 14:42:45 10° ENE daylight
29 Aug - 16:19:56 10° NNW 16:24:42 72° ENE 16:29:05 10° SE daylight
29 Aug - 18:05:18 10° W 18:07:03 12° WSW 18:08:47 10° SW daylight
30 Aug - 06:59:27 10° S 07:05:21 51° ESE 07:10:48 10° NE daylight
30 Aug - 08:43:29 10° WSW 08:48:46 32° NW 08:53:40 10° NNE daylight
30 Aug - 14:05:30 10° NNE 14:06:00 10° NNE 14:06:29 10° NE daylight
30 Aug - 15:45:54 10° NNW 15:50:31 48° NE 15:54:48 10° SE daylight
30 Aug - 17:30:00 10° WNW 17:33:13 19° WSW 17:36:17 10° SSW daylight
